Weather reports worldwide

Advertisment
Gogerddan, United Kingdom (99150): temperature & dewpoint: 21.04.2017 00:00:00 - 27.04.2017 00:00:00 (BST)Gogerddan, United Kingdom (99150): temperature -20cm & temperature -100cm: 21.04.2017 00:00:00 - 27.04.2017 00:00:00 (BST)Gogerddan, United Kingdom (99150): precipitation: 21.04.2017 00:00:00 - 27.04.2017 00:00:00 (BST)
Date & Time tt [°C] td [°C] tt -20cm [°C] tt -100cm [°C] rr [mm]
27.04.2017 00:00:00 - - - - 0,0
26.04.2017 23:00:00 0,2 -3,4 - - 0,0
26.04.2017 22:00:00 2,7 -2,7 - - 0,0
26.04.2017 21:00:00 5,0 -3,3 - - 0,0
26.04.2017 20:00:00 6,9 -3,1 - - 0,0
26.04.2017 19:00:00 7,8 -3,5 - - 0,0
26.04.2017 18:00:00 8,5 -2,6 - - 0,0
26.04.2017 17:00:00 9,0 -2,2 - - 0,0
26.04.2017 16:00:00 10,0 -0,3 - - 0,0
26.04.2017 15:00:00 9,7 -1,2 - - 0,0
26.04.2017 14:00:00 9,6 -0,8 - - 0,0
26.04.2017 13:00:00 9,3 0,1 - - 0,0
26.04.2017 12:00:00 7,6 -1,5 - - 0,0
26.04.2017 11:00:00 8,0 0,4 - - 0,0
26.04.2017 10:00:00 6,5 -0,5 10,0 10,2 0,0
26.04.2017 09:00:00 5,9 1,9 - - 0,0
26.04.2017 08:00:00 0,9 -0,3 - - 0,2
26.04.2017 07:00:00 -1,5 -2,3 - - 0,0
26.04.2017 06:00:00 -1,8 -2,7 - - 0,0
26.04.2017 05:00:00 -2,0 -3,0 - - 0,0
26.04.2017 04:00:00 -1,2 -1,7 - - 0,0
26.04.2017 03:00:00 -1,7 -2,6 - - 0,0
26.04.2017 02:00:00 0,1 -0,8 - - 0,0
26.04.2017 01:00:00 0,8 -0,7 - - 0,0
26.04.2017 00:00:00 -0,1 -1,4 - - 0,0
25.04.2017 23:00:00 1,0 -0,8 - - 0,0
25.04.2017 22:00:00 2,5 -0,3 - - 0,0
25.04.2017 21:00:00 5,6 0,3 - - 0,0
25.04.2017 20:00:00 7,0 0,3 - - 0,0
25.04.2017 19:00:00 8,1 0,3 - - 0,0
25.04.2017 18:00:00 8,6 0,7 - - 0,0
25.04.2017 17:00:00 8,0 1,5 - - 0,2
25.04.2017 16:00:00 7,6 0,1 - - 0,0
25.04.2017 15:00:00 8,1 -1,0 - - 0,0
25.04.2017 14:00:00 9,0 1,0 - - 0,0
25.04.2017 13:00:00 9,1 1,0 - - 0,0
25.04.2017 12:00:00 8,5 0,3 - - 0,0
25.04.2017 11:00:00 6,9 -0,5 - - 0,0
25.04.2017 10:00:00 7,2 1,2 10,7 10,0 0,0
25.04.2017 09:00:00 5,2 0,5 - - 0,0
25.04.2017 08:00:00 3,9 0,2 - - 0,0
25.04.2017 07:00:00 2,2 0,7 - - 0,0
25.04.2017 06:00:00 3,9 1,0 - - 0,0
25.04.2017 05:00:00 3,5 0,8 - - 0,4
25.04.2017 04:00:00 5,5 1,4 - - 0,0
25.04.2017 03:00:00 5,3 1,8 - - 0,4
25.04.2017 02:00:00 5,9 0,7 - - 0,0
25.04.2017 01:00:00 5,2 -1,3 - - 0,0
25.04.2017 00:00:00 4,1 -2,6 - - 0,0
24.04.2017 23:00:00 4,5 -2,8 - - 0,0
24.04.2017 22:00:00 5,7 -2,4 - - 0,0
24.04.2017 21:00:00 6,9 -2,8 - - 0,0
24.04.2017 20:00:00 7,2 -4,6 - - 0,0
24.04.2017 19:00:00 7,6 -0,9 - - 0,0
24.04.2017 18:00:00 9,0 0,7 - - 0,0
24.04.2017 17:00:00 9,5 3,8 - - 0,0
24.04.2017 16:00:00 9,6 4,2 - - 0,0
24.04.2017 15:00:00 10,1 6,8 - - 0,2
24.04.2017 14:00:00 9,1 7,8 - - 0,8
24.04.2017 13:00:00 11,9 7,7 - - 0,0
24.04.2017 12:00:00 11,0 7,5 - - 0,0
24.04.2017 11:00:00 10,6 7,8 - - 0,0
24.04.2017 10:00:00 10,6 7,6 10,9 10,0 0,0
24.04.2017 09:00:00 10,3 7,8 - - 0,0
24.04.2017 08:00:00 10,0 8,9 - - 0,0
24.04.2017 07:00:00 9,8 9,2 - - 0,4
24.04.2017 06:00:00 9,8 9,0 - - 0,0
24.04.2017 05:00:00 10,0 8,5 - - 0,0
24.04.2017 04:00:00 9,9 8,1 - - 0,0
24.04.2017 03:00:00 8,1 6,5 - - 0,0
24.04.2017 02:00:00 7,8 6,4 - - 0,0
24.04.2017 01:00:00 7,6 6,3 - - 0,0
24.04.2017 00:00:00 7,6 6,2 - - 0,0
23.04.2017 23:00:00 7,5 5,6 - - 0,0
23.04.2017 22:00:00 7,4 5,5 - - 0,0
23.04.2017 21:00:00 9,1 6,7 - - 0,0
23.04.2017 20:00:00 9,0 5,6 - - 0,0
23.04.2017 19:00:00 10,6 5,9 - - 0,0
23.04.2017 18:00:00 11,7 6,0 - - 0,0
23.04.2017 17:00:00 12,1 6,7 - - 0,0
23.04.2017 16:00:00 12,4 5,9 - - 0,0
23.04.2017 15:00:00 12,0 5,7 - - 0,0
23.04.2017 14:00:00 11,7 6,5 - - 0,0
23.04.2017 13:00:00 11,0 7,1 - - 0,0
23.04.2017 12:00:00 10,5 7,5 - - 0,0
23.04.2017 11:00:00 10,4 7,3 - - 0,0
23.04.2017 10:00:00 10,3 6,5 10,7 10,0 0,0
23.04.2017 09:00:00 9,8 6,3 - - 0,0
23.04.2017 08:00:00 9,3 8,1 - - 0,0
23.04.2017 07:00:00 8,4 7,5 - - 0,0
23.04.2017 06:00:00 8,3 7,2 - - 0,0
23.04.2017 05:00:00 8,4 7,6 - - 0,0
23.04.2017 04:00:00 8,6 8,0 - - 0,2
23.04.2017 03:00:00 8,6 7,7 - - 0,0
23.04.2017 02:00:00 8,7 7,5 - - 0,0
23.04.2017 01:00:00 9,4 7,2 - - 0,0
23.04.2017 00:00:00 9,6 7,4 - - 0,0
22.04.2017 23:00:00 9,9 7,2 - - 0,0
22.04.2017 22:00:00 9,8 6,0 - - 0,0
22.04.2017 21:00:00 9,9 6,3 - - 0,0
22.04.2017 20:00:00 10,3 6,4 - - 0,0
22.04.2017 19:00:00 10,9 6,6 - - 0,0
22.04.2017 18:00:00 11,8 5,9 - - 0,0
22.04.2017 17:00:00 12,1 5,4 - - 0,0
22.04.2017 16:00:00 12,1 5,8 - - 0,0
22.04.2017 15:00:00 12,4 6,7 - - 0,0
22.04.2017 14:00:00 11,8 5,0 - - 0,0
22.04.2017 13:00:00 12,0 5,2 - - 0,0
22.04.2017 12:00:00 11,3 5,4 - - 0,0
22.04.2017 11:00:00 10,5 5,3 - - 0,0
22.04.2017 10:00:00 9,7 4,6 10,5 9,9 0,0
22.04.2017 09:00:00 9,3 5,0 - - 0,0
22.04.2017 08:00:00 8,6 4,5 - - 0,0
22.04.2017 07:00:00 9,0 5,2 - - 0,0
22.04.2017 06:00:00 8,2 5,5 - - 0,0
22.04.2017 05:00:00 8,8 5,7 - - 0,0
22.04.2017 04:00:00 9,7 7,2 - - 0,0
22.04.2017 03:00:00 10,0 8,4 - - 0,0
22.04.2017 02:00:00 9,6 8,4 - - 0,0
22.04.2017 01:00:00 9,3 8,4 - - 0,0
22.04.2017 00:00:00 9,5 8,3 - - 0,0
21.04.2017 23:00:00 10,0 8,3 - - 0,0
21.04.2017 22:00:00 10,2 8,0 - - 0,0
21.04.2017 21:00:00 10,3 8,1 - - 0,0
21.04.2017 20:00:00 10,6 8,3 - - 0,0
21.04.2017 19:00:00 11,0 7,9 - - 0,0
21.04.2017 18:00:00 11,4 8,0 - - 0,0
21.04.2017 17:00:00 12,3 8,1 - - 0,0
21.04.2017 16:00:00 12,8 7,8 - - 0,0
21.04.2017 15:00:00 13,0 9,0 - - 0,0
21.04.2017 14:00:00 12,5 8,3 - - 0,0
21.04.2017 13:00:00 11,9 8,8 - - 0,0
21.04.2017 12:00:00 11,8 8,3 - - 0,0
21.04.2017 11:00:00 11,4 9,5 - - 0,0
21.04.2017 10:00:00 10,4 8,8 10,2 9,7 0,0
21.04.2017 09:00:00 9,2 8,1 - - 0,0
21.04.2017 08:00:00 8,5 7,9 - - 0,0
21.04.2017 07:00:00 7,9 7,4 - - 0,0
21.04.2017 06:00:00 7,8 7,3 - - 0,0
21.04.2017 05:00:00 7,5 7,2 - - 0,0
21.04.2017 04:00:00 7,4 7,1 - - 0,0
21.04.2017 03:00:00 6,9 6,6 - - 0,0
21.04.2017 02:00:00 6,2 5,9 - - 0,0
21.04.2017 01:00:00 5,6 5,3 - - 0,0
21.04.2017 00:00:00 5,3 4,7 - - 0,0

tt = temperature
td = dewpoint
tt -20cm = temperature -20cm
tt -100cm = temperature -100cm
rr = precipitation

Next stations